Weather History for Riverton, WY

Change the Weather History Date:

Wednesday, June 26, 2013

  Actual Average Record
Temperature  
Mean Temperature 73 °F 67 °F  
Max Temperature 92 °F 82 °F 94 °F (2002)
Min Temperature 54 °F 52 °F 41 °F (2000)
Degree Days  
Heating Degree Days 0 2  
Month to date heating degree days 52 113  
Since 1 June heating degree days 52 113  
Since 1 July heating degree days 7535 7864  
Cooling Degree Days 8 4  
Month to date cooling degree days 84 50  
Year to date cooling degree days 97 59  
Since 1 June cooling degree days 84 50  
Growing Degree Days 23 (Base 50)    
Moisture  
Dew Point 39 °F    
Average Humidity 36    
Maximum Humidity 59    
Minimum Humidity 13    
Precipitation  
Precipitation 0.00 in 0.03 in 0.39 in (2014)
Month to date precipitation 0.05 1.14  
Year to date precipitation 3.49 5.22  
Snow  
Snow 0.00 in - - ()
Month to date snowfall 0.0  
Since 1 June snowfall 0.0  
Since 1 July snowfall 38.2  
Snow Depth 0.00 in    
Sea Level Pressure  
Sea Level Pressure 29.89 in    
Wind  
Wind Speed 10 mph (WNW)    
Max Wind Speed 23 mph    
Max Gust Speed 29 mph    
Visibility 10 miles    
Events      
T = Trace of Precipitation, MM = Missing Value Source: NWS Daily Summary

Daily Weather History Graph

Daily Weather History Graph

Search for Another Location

Airport:

Trip Planner

Search our weather history database for the weather conditions in past years. The results will help you decide how hot, cold, wet, or windy it might be!

Date:

Astronomy

Jun. 26, 2013 Rise Set
Actual Time 5:36 AM MDT 8:57 PM MDT
Civil Twilight 5:00 AM MDT 9:32 PM MDT
Nautical Twilight 4:14 AM MDT 10:18 PM MDT
Astronomical Twilight 3:17 AM MDT 11:15 PM MDT
Moon 11:14 PM MDT (6/26) 9:37 AM MDT (6/26)
Length of Visible Light 16h 31m
Length of Day
15h 21m
Waning Gibbous, 85% of the Moon is Illuminated
Jun 26
Waning Gibbous
Jun 29
Last Quarter
Jul 8
New
Jul 15
First Quarter
Jul 22
Full

Hourly Weather History & Observations

Time (MDT) Temp. Dew Point Humidity Pressure Visibility Wind Dir Wind Speed Gust Speed Precip Events Conditions
12:53 AM 66.0 °F 41.0 °F 40% 29.84 in 10.0 mi Variable 4.6 mph - N/A   Clear
1:53 AM 59.0 °F 41.0 °F 51% 29.85 in 10.0 mi NW 10.4 mph - N/A   Clear
2:53 AM 59.0 °F 41.0 °F 51% 29.84 in 10.0 mi NNW 6.9 mph - N/A   Clear
3:53 AM 59.0 °F 41.0 °F 51% 29.83 in 10.0 mi WNW 10.4 mph - N/A   Clear
4:53 AM 59.0 °F 39.9 °F 49% 29.84 in 10.0 mi WSW 4.6 mph - N/A   Clear
5:53 AM 55.0 °F 41.0 °F 59% 29.87 in 10.0 mi NW 9.2 mph - N/A   Clear
6:53 AM 62.1 °F 42.1 °F 48% 29.87 in 10.0 mi WNW 3.5 mph - N/A   Clear
7:53 AM 66.0 °F 41.0 °F 40% 29.89 in 10.0 mi NNW 4.6 mph - N/A   Partly Cloudy
8:53 AM 69.1 °F 41.0 °F 36% 29.91 in 10.0 mi WNW 5.8 mph - N/A   Clear
9:53 AM 70.0 °F 44.1 °F 39% 29.93 in 10.0 mi SE 3.5 mph - N/A   Clear
10:53 AM 75.0 °F 42.1 °F 31% 29.91 in 10.0 mi Calm Calm - N/A   Clear
11:53 AM 81.0 °F 41.0 °F 24% 29.89 in 10.0 mi East 8.1 mph - N/A   Clear
12:53 PM 84.0 °F 39.9 °F 21% 29.88 in 10.0 mi ESE 8.1 mph - N/A   Clear
1:53 PM 84.0 °F 39.0 °F 20% 29.88 in 10.0 mi Variable 5.8 mph - N/A   Scattered Clouds
2:53 PM 88.0 °F 37.0 °F 16% 29.86 in 10.0 mi West 9.2 mph - N/A   Partly Cloudy
3:53 PM 88.0 °F 37.0 °F 16% 29.86 in 10.0 mi NW 15.0 mph 18.4 mph N/A   Scattered Clouds
4:53 PM 91.0 °F 34.0 °F 13% 29.85 in 10.0 mi West 17.3 mph 27.6 mph N/A   Partly Cloudy
5:03 PM 91.4 °F 33.8 °F 13% 30.06 in 10.0 mi WSW 20.7 mph 28.8 mph N/A   Partly Cloudy
5:53 PM 87.1 °F 34.0 °F 15% 29.87 in 10.0 mi West 17.3 mph 21.9 mph N/A   Partly Cloudy
6:53 PM 88.0 °F 35.1 °F 15% 29.87 in 10.0 mi West 17.3 mph 23.0 mph N/A   Scattered Clouds
7:53 PM 86.0 °F 32.0 °F 14% 29.89 in 10.0 mi WNW 18.4 mph - N/A   Clear
8:53 PM 78.1 °F 37.9 °F 24% 29.92 in 10.0 mi NW 11.5 mph - N/A   Clear
9:53 PM 73.0 °F 37.0 °F 27% 29.97 in 10.0 mi NNW 11.5 mph - N/A   Clear
10:53 PM 70.0 °F 37.0 °F 30% 29.99 in 10.0 mi NW 11.5 mph - N/A   Clear
11:53 PM 66.0 °F 35.1 °F 32% 29.99 in 10.0 mi NNW 8.1 mph - N/A   Clear